Location: Hanston Cemetery
(38.1563°N, 99.7166°W)
Time: 04:23:48
(UTC+00:00)

Daily predictions for brighter satellites

Satellite Brightness Start Highest point End
(mag) Time Altitude Azimuth Time Altitude Azimuth Time Altitude Azimuth
Cosmos 1833 Rocket 3.6 00:40:12 10° NNW 00:45:44 56° WSW 00:51:12 10° S
STARLINK-1014 3.8 00:45:51 10° SSW 00:49:01 38° SE 00:52:13 10° ENE
Cosmos 1459 Rocket 4.0 00:43:23 10° S 00:49:26 87° W 00:55:30 10° N
STARLINK-42 3.7 00:46:26 10° WSW 00:49:36 51° NW 00:52:49 10° NE
STARLINK-1023 3.0 00:51:05 10° SW 00:54:02 56° SE 00:57:01 10° ENE
Cosmos 2061 Rocket 4.1 00:48:36 10° S 00:54:59 73° E 01:01:23 10° N
ADEOS Rocket 3.9 00:48:38 10° NNE 00:56:03 46° E 01:03:20 10° S
Aureole 2 Rocket 3.7 00:55:08 10° SE 00:56:20 12° E 00:57:13 11° E
CSL-04 Rocket 4.0 00:52:10 10° SE 00:57:29 48° ENE 01:02:45 10° N
USA 229 DEB 3.7 00:51:38 10° SSW 00:57:58 61° ESE 01:04:37 10° NE
STARLINK-24 3.6 00:54:03 10° SW 00:58:04 81° NW 01:02:06 10° NE
USA 229 3.7 00:51:45 10° SSW 00:58:05 61° ESE 01:04:43 10° NE
FALCON 9 R/B 4.5 00:26:52 10° W 00:59:56 74° SSW 01:07:28 10° ESE
Cosmos 1782 3.0 00:56:48 10° N 01:00:49 77° W 01:04:46 10° S
STARLINK-1007 2.8 00:57:51 10° SW 01:00:54 69° SE 01:03:58 10° NE
STARLINK-58 3.7 00:58:02 10° WSW 01:01:32 58° NW 01:05:04 10° NE
Cosmos 1725 Rocket 4.0 00:55:49 10° S 01:01:52 63° E 01:07:59 10° NNE
STARLINK-62 3.8 00:59:47 10° WSW 01:03:16 54° NW 01:06:45 10° NE
Cosmos 1503 Rocket 4.0 00:58:55 10° NNW 01:04:14 84° ENE 01:09:27 10° SSE
YAOGAN 6 4.0 01:01:29 10° S 01:04:50 43° W 01:08:12 10° NNW
STARLINK-34 3.9 01:01:23 10° WSW 01:04:50 52° NW 01:08:19 10° NE
STARLINK 1040 2.6 01:02:21 10° SW 01:05:08 80° NW 01:07:51 11° NE
NOSS 3-1 (A) 3.7 01:00:31 10° S 01:05:24 38° ESE 01:10:51 10° NE
STARLINK-81 3.7 01:02:12 10° SW 01:06:12 76° NW 01:10:14 10° NE
Cosmos 1862 3.2 01:02:44 10° S 01:06:42 67° E 01:10:40 10° NNE
SL-4 R/B 2.8 01:02:36 10° NW 01:07:08 43° NNE 01:10:54 13° E
Cosmos 921 Rocket 3.5 01:03:25 10° S 01:07:38 42° E 01:11:54 10° NNE
Cosmos 2346 Rocket 4.5 01:01:40 10° N 01:07:52 63° E 01:13:59 10° SSE
STARLINK-54 3.8 01:04:04 10° WSW 01:08:03 67° NW 01:12:04 10° NE
CSL-04 Debris 4.2 01:04:02 10° SSE 01:09:23 63° ENE 01:14:47 10° N
NOAA 11 4.1 01:04:03 10° SSE 01:09:27 69° ENE 01:14:52 10° N
STARLINK-77 3.7 01:05:31 10° SW 01:09:31 71° NW 01:13:32 10° NE
STARLINK-1010 2.8 01:06:35 10° SW 01:09:38 88° SE 01:12:22 13° NE
Lacrosse 4 Rocket 2.7 01:06:45 10° SW 01:10:43 42° WNW 01:14:48 10° NNE
STARLINK-25 3.8 01:07:11 10° SW 01:11:11 68° NW 01:15:11 10° NE
YAOGAN 1 2.5 01:07:55 10° SSE 01:12:13 73° ENE 01:16:33 10° N
STARLINK-71 4.0 01:09:04 10° WSW 01:13:02 59° NW 01:17:01 10° NE
Abrixas rocket 1.8 01:10:51 10° NW 01:13:49 81° NNE 01:16:10 15° ESE
Cosmos 1802 Rocket 4.4 01:08:14 10° SSW 01:14:26 68° W 01:20:46 10° N
STARLINK-79 3.9 01:10:31 10° WSW 01:14:29 64° NW 01:18:27 10° NE
STARLINK-78 4.0 01:12:10 10° WSW 01:16:09 61° NW 01:20:02 11° NE
STARLINK-1008 2.9 01:13:02 10° SW 01:16:10 78° NW 01:18:44 14° NE
STARLINK-1016 3.0 01:14:01 10° SW 01:17:07 76° NW 01:19:38 15° NE
STARLINK-57 4.1 01:13:56 10° WSW 01:17:53 56° NW 01:21:44 11° NE
STARLINK-1025 3.0 01:15:02 10° SW 01:18:09 74° NW 01:20:39 15° NE
STARLINK-1017 3.0 01:16:03 10° SW 01:19:10 72° NW 01:21:36 15° NE
Cosmos 1340 3.7 01:16:08 10° SSE 01:19:12 24° E 01:22:18 10° NE
STARLINK-49 4.1 01:15:29 10° WSW 01:19:26 57° NW 01:23:12 11° NE
Tsikada Rocket 4.0 01:14:23 10° N 01:20:43 65° E 01:27:05 10° SSE
STARLINK-27 4.1 01:17:11 10° WSW 01:21:08 55° NW 01:24:49 12° NE
Cosmos 1633 Rocket 3.0 01:17:25 10° S 01:21:42 63° E 01:25:59 10° NNE
STARLINK-1048 3.1 01:19:09 10° SW 01:22:15 66° NW 01:24:35 16° NE
STARLINK-1029 2.8 01:19:28 10° SW 01:22:37 85° SE 01:24:42 20° NE
STARLINK-1033 4.4 01:19:00 10° SSW 01:22:44 33° SE 01:24:45 21° E
STARLINK-74 4.2 01:18:50 10° WSW 01:22:46 54° NW 01:26:23 12° NE
STARLINK-1028 3.2 01:19:41 10° WSW 01:22:49 65° NW 01:25:09 17° NE
HJ-1C 4.1 01:19:56 10° SE 01:22:54 31° ENE 01:25:53 10° N
STARLINK-1049 3.2 01:20:03 10° WSW 01:23:10 64° NW 01:25:28 17° NE
STARLINK-1021 3.2 01:20:35 10° WSW 01:23:40 63° NW 01:25:55 17° NE
STARLINK-1051 3.2 01:21:09 10° WSW 01:24:17 63° NW 01:26:34 17° NE
STARLINK-39 4.2 01:20:31 10° WSW 01:24:26 52° NW 01:27:59 12° NE
STARLINK-1019 3.3 01:21:45 10° WSW 01:24:50 61° NW 01:27:04 17° NE
Cosmos 1666 Rocket 3.5 01:20:27 10° S 01:24:54 86° E 01:29:25 10° N
CZ-2D R/B 3.2 01:21:22 10° SSE 01:25:13 84° E 01:29:09 10° N
Cosmos 1933 Rocket 4.5 01:22:03 10° SE 01:25:43 26° E 01:29:21 10° NNE
STARLINK-1012 3.3 01:22:57 10° WSW 01:26:02 59° NW 01:28:14 18° NE
STARLINK-31 4.3 01:22:10 10° WSW 01:26:05 50° NW 01:29:35 13° NE
STARLINK-69 4.5 01:24:06 10° WSW 01:27:57 45° NW 01:31:25 12° NE
STARLINK-1026 3.4 01:25:20 10° WSW 01:28:26 56° NW 01:30:34 18° NE
Cosmos 1346 Rocket 3.7 01:25:32 10° SSE 01:28:54 27° E 01:30:44 19° NE
STARLINK-21 4.4 01:25:34 10° WSW 01:29:26 46° NW 01:32:48 13° NE
STARLINK-1013 3.5 01:26:29 10° WSW 01:29:35 54° NW 01:31:40 19° NE
STARLINK-1009 3.5 01:27:30 10° WSW 01:30:35 53° NW 01:32:36 19° NNE
NOSS 2-3 (C) 4.0 01:27:11 10° S 01:31:09 41° ESE 01:33:54 20° NE
STARLINK-1015 3.6 01:28:48 10° WSW 01:31:54 51° NW 01:33:53 19° NNE
Meteor 1-10 Rocket 4.3 01:26:21 10° N 01:31:59 82° W 01:37:31 10° S
SL-27 R/B 3.0 01:29:40 10° N 01:32:41 30° ENE 01:32:49 30° ENE
STARLINK-1024 4.1 01:28:48 10° SSW 01:32:41 42° SE 01:34:23 27° E
Cosmos 1943 Rocket 2.1 01:27:31 10° SSW 01:33:06 82° ESE 01:38:42 10° NNE
Cosmos 1812 2.6 01:30:42 10° N 01:34:32 63° E 01:38:21 10° SSE
Cosmos 1777 Rocket 4.3 01:29:30 10° N 01:34:35 45° ENE 01:39:36 10° SE
CZ-4 R/B 3.1 01:36:20 10° SSW 01:40:15 38° W 01:44:11 10° NNW
STARLINK-1032 3.8 01:38:36 10° SSW 01:42:36 52° SE 01:43:58 35° E
Cosmos 1939 Rocket 3.7 01:40:51 10° S 01:44:51 53° W 01:48:55 10° NNW
STARLINK-1011 3.7 01:43:29 10° SSW 01:47:32 58° SE 01:48:43 40° ENE
SJ-11-01 4.3 01:44:35 10° SSE 01:49:10 56° ENE 01:53:44 10° N
STARLINK-1036 3.6 01:48:26 10° SW 01:52:31 65° SE 01:53:31 46° ENE
Cosmos 2242 Rocket 4.1 01:48:16 10° N 01:52:26 38° ENE 01:52:26 38° ENE
Cosmos 2233 Rocket 4.1 01:49:16 10° S 01:55:24 76° W 02:01:35 10° N
MOS 1 4.4 01:51:06 10° SE 01:56:35 52° ENE 02:02:03 10° N
STARLINK-1044 3.5 01:53:24 10° SW 01:57:31 72° SE 01:58:20 54° ENE
H-2A R/B 2.2 01:56:34 24° SE 01:59:34 51° ENE 02:04:48 10° N
NOSS 3-1 (C) 4.1 01:55:11 10° SW 02:00:25 48° NW 02:06:25 10° NNE
Cosmos 44 4.3 01:59:57 10° N 02:02:50 27° NNE 02:02:50 27° NNE
Cosmos 2369 Rocket 2.4 01:59:05 10° SSW 02:04:42 70° WNW 02:10:23 10° NNE
Cosmos 1470 Rocket 3.6 02:00:33 10° S 02:04:51 77° W 02:09:14 10° N
ATLAS CENTAUR Rocket 4.3 02:01:47 10° S 02:05:23 20° SE 02:05:23 20° SE
CZ-2C R/B 3.5 02:03:38 32° SE 02:06:00 50° ENE 02:11:34 10° N
USA 267 3.3 02:04:14 32° ENE 02:07:12 57° SE 02:13:35 10° SSW
STARLINK-1037 3.5 02:03:21 10° SW 02:07:28 88° SE 02:07:55 71° NE
Ariane Rocket 2.9 02:03:11 10° SSE 02:08:16 87° WSW 02:13:25 10° NNW
STARLINK-1059 3.5 02:08:15 10° SW 02:12:24 84° NW 02:12:38 77° NNE
Cosmos 1656 Rocket 3.5 02:08:33 10° S 02:13:56 63° ESE 02:15:27 45° NE
Cosmos 1862 Rocket 3.9 02:11:13 10° NNW 02:15:30 63° W 02:19:47 10° S
STARLINK-1057 3.6 02:13:16 10° SW 02:17:24 76° NW 02:17:27 76° NNW
Cosmos 2263 4.4 02:15:25 10° SSW 02:21:11 73° WNW 02:26:59 10° NNE
STARLINK-1034 3.8 02:18:16 10° SW 02:22:14 69° NW 02:22:14 69° NW
Meteor 2-11 Rocket 4.3 02:18:08 10° S 02:24:10 66° E 02:30:12 10° NNE
Cosmos 1513 Rocket 4.3 02:18:55 10° S 02:24:55 70° E 02:31:00 10° NNE
STARLINK-1068 4.0 02:23:15 10° WSW 02:27:00 60° WNW 02:27:00 60° WNW
Meteor 1-20 Rocket 4.0 02:25:10 10° S 02:30:37 88° W 02:36:09 10° N
STARLINK-1031 4.4 02:27:05 10° WSW 02:30:27 47° WNW 02:30:27 47° WNW
NOSS 2-3 (E) 4.4 02:28:23 10° SW 02:32:29 48° NW 02:33:40 38° N
Cosmos 1891 Rocket 4.3 02:26:55 10° S 02:33:00 83° E 02:39:16 10° N
USA 234 4.4 02:39:34 27° NNE 02:39:44 27° NNE 02:44:58 10° NNW
SPOT 3 Rocket 4.3 02:42:15 41° N 02:42:15 41° N 02:45:36 10° N
ARGOS 3.2 02:41:23 62° SSW 02:42:15 77° WSW 02:47:42 10° NNW
SL-4 R/B 3.6 02:42:37 10° WNW 02:46:33 33° SW 02:46:33 33° SW
Cosmos 1464 Rocket 4.3 02:51:10 10° SSW 02:57:26 65° W 03:03:47 10° N
H-2A R/B 4.5 03:37:10 15° WSW 03:39:15 19° W 03:42:57 10° NW
USA 267 4.4 03:51:37 37° WNW 03:51:37 37° WNW 03:56:06 10° WSW
Lacrosse 5 3.9 10:22:17 24° NE 10:22:17 24° NE 10:25:27 10° E
Cosmos 1943 Rocket 3.9 10:24:26 20° NNE 10:26:52 28° ENE 10:31:32 10° ESE
NOSS 3-1 (A) 4.1 10:29:43 69° N 10:30:48 80° ENE 10:39:35 10° SE
USA 267 3.3 10:30:34 10° SE 10:36:25 73° ESE 10:36:25 73° ESE
H-2A R/B 4.5 10:37:06 10° NE 10:40:58 28° E 10:41:26 28° ESE
CZ-2C R/B 3.7 10:35:55 10° NNE 10:39:15 38° NE 10:39:15 38° NE
Cosmos 1605 Rocket 4.3 10:38:26 10° N 10:44:36 62° E 10:50:38 10° SSE
SL-16 R/B 3.9 10:49:10 22° N 10:49:10 22° N 10:51:18 10° N
Cosmos 2369 Rocket 3.4 10:54:47 10° N 11:00:12 41° ENE 11:05:33 10° SE
Cosmos 1603 3.9 11:01:11 53° SSE 11:02:22 69° ESE 11:08:02 10° NNE
DELTA 2 R/B (1) 4.2 11:03:11 44° SSE 11:03:32 45° SSE 11:08:49 10° E
Cosmos 1943 3.7 11:03:16 28° S 11:06:03 55° ESE 11:11:32 10° NNE
Cosmos 1727 Rocket 4.1 11:02:59 10° S 11:09:09 75° E 11:15:19 10° N
STARLINK-1099 4.4 11:12:22 48° ENE 11:12:22 48° ENE 11:15:25 10° NE
Cosmos 1484 Rocket 4.1 11:07:42 10° NNE 11:11:27 39° E 11:14:06 17° SSE
Cosmos 1339 Rocket 4.3 11:14:14 62° WNW 11:14:14 62° WNW 11:20:00 10° N
STARLINK-1104 4.2 11:17:14 54° ENE 11:17:14 54° ENE 11:20:28 10° NE
Cosmos 1140 Rocket 4.3 11:11:35 10° S 11:16:37 50° ESE 11:21:41 10° NNE
Cosmos 407 Rocket 3.6 11:16:30 34° S 11:18:50 76° ESE 11:24:08 10° NNE
Aureole 1 Rocket 4.4 11:13:56 24° SSW 11:18:57 84° WNW 11:27:32 10° NNE
STARLINK-1144 3.9 11:21:44 62° NE 11:21:44 62° NE 11:25:10 10° NE
Cosmos 2221 2.5 11:24:20 70° N 11:24:20 70° N 11:28:09 10° N
STARLINK-1128 3.8 11:25:42 62° NNE 11:25:42 62° NNE 11:29:11 10° NE
STARLINK-1103 3.7 11:26:36 67° NNE 11:26:36 67° NNE 11:30:14 10° NE
COSMO-SKYMED 1 4.0 11:22:48 10° SE 11:26:47 37° ENE 11:30:48 10° N
STARLINK-1113 3.7 11:30:08 65° N 11:30:08 65° N 11:33:47 10° NE
STARLINK-1101 3.6 11:31:05 70° N 11:31:05 70° N 11:34:54 10° NE
Meteor 2-3 Rocket 3.6 11:27:17 10° NNW 11:33:03 75° W 11:38:50 10° S
GEOS 3 Rocket 3.5 11:27:45 10° NNE 11:33:04 76° NW 11:35:04 40° SW
STARLINK-1119 3.6 11:34:15 64° NNW 11:34:15 64° NNW 11:38:01 10° NE
STARLINK-1102 3.5 11:35:50 66° NNW 11:35:50 66° NNW 11:39:46 10° NE
Cosmos 2100 Rocket 4.4 11:30:10 10° N 11:36:20 63° E 11:42:24 10° SSE
Cosmos 614 Rocket 3.9 11:35:18 46° SW 11:36:39 64° WNW 11:41:49 10° NNE
STARLINK-1114 3.6 11:39:07 61° NW 11:39:07 61° NW 11:43:07 10° NE
Meteor 1-31 Rocket 4.0 11:36:22 10° N 11:38:21 28° NNW 11:38:21 28° NNW
STARLINK-1111 3.6 11:40:17 61° NW 11:40:20 61° NW 11:44:23 10° NE
STARLINK-1130 (DARKSAT) 3.6 11:43:24 55° NW 11:43:32 55° NW 11:47:31 10° NE
Cosmos 1190 Rocket 3.9 11:40:14 18° SSW 11:44:09 74° WNW 11:49:28 10° NNE
STARLINK-1073 3.7 11:45:12 53° WNW 11:45:31 55° NW 11:49:34 10° NE
Cosmos 1459 Rocket 4.3 11:39:57 10° N 11:46:09 70° E 11:52:25 10° SSE
STARLINK-1084 3.7 11:48:08 49° WNW 11:48:30 51° NW 11:52:29 10° NE
CZ-4B R/B 3.2 11:46:10 10° N 11:48:48 38° NNW 11:48:48 38° NNW
STARLINK-1121 3.8 11:49:55 47° WNW 11:50:27 50° NW 11:54:27 10° NE
ISS -0.6 11:51:09 10° SSE 11:52:35 12° SE 11:54:02 10° ESE
METEOR-M 4.2 11:47:38 10° NNE 11:52:59 78° ESE 11:58:19 10° S
STARLINK-1106 3.9 11:54:42 41° WNW 11:55:26 46° NW 11:59:24 10° NE
